Tracking 18980 objects as of 19-Feb-2018
HD Live streaming from Space Station
objects crossing your sky now

GALAXY 3R

Track GALAXY 3R now!
GALAXY 3R is classified as:


NORAD ID: 23741
Int'l Code: 1995-069A
Perigee: 35,763.3 km
Apogee: 35,807.3 km
Inclination: 10.3 °
Period: 1,435.7 minutes
Semi major axis: 42156 km
RCS: 12.3125 m2 (large)
Launch date: December 15, 1995
Source: United States (US)
Launch site: AIR FORCE EASTERN TEST RANGE (AFETR)

24 C-band, 16 Ku-band; North America, Caribbean; 140 television channels.
aabbcc
Your satellite tracking list
Your tracking list is empty




NASA's NSSDC Master Catalog

Two Line Element Set (TLE):
1 23741U 95069A   18049.63302095 +.00000046 +00000-0 +00000-0 0  9996
2 23741 010.3373 037.7120 0005220 277.1921 290.7377 01.00301987081322
Source of the keplerian elements: AFSPC